Wind_Speed
19 20 19 17 18 20 21 23 25 24 26 27 30 33 34 34 34 33 31 28 26 25 25 26 28 31 34 36 37 37 38 38 37 37 36 36 35 35 35 36 38 39 41 42
17 17 16 15 16 16 17 20 22 23 24 26 28 28 29 28 26 24 22 17 15 14 16 19 23 27 30 32 33 34 34 34 33 33 32 32 33 33 34 36 37 39 41 43
14 14 13 12 13 14 15 16 18 20 22 23 24 24 23 23 21 16 11 5 3 7 12 16 19 24 27 29 30 30 29 29 29 29 29 29 30 31 33 35 37 40 42 44
12 12 11 9 10 10 12 13 15 18 20 22 23 21 20 20 18 15 10 8 10 11 13 15 18 22 24 25 25 25 25 24 24 25 25 27 28 30 33 35 38 40 41 43
10 9 9 7 7 8 10 11 13 15 17 20 20 20 19 19 18 17 17 16 16 16 17 18 19 19 20 20 20 19 19 19 20 21 23 26 28 31 34 36 37 39 40 43
9 8 7 6 6 7 9 9 11 12 15 17 19 18 18 18 17 17 17 17 18 18 18 18 18 17 16 15 14 14 14 15 18 21 24 26 28 30 32 35 36 39 41 44
9 8 6 5 6 6 7 9 10 12 14 14 15 16 16 15 16 15 15 15 15 16 16 16 16 15 13 12 11 12 14 17 19 21 24 26 27 30 32 34 37 39 42 45
9 8 6 5 6 6 7 9 10 10 12 12 13 13 13 12 12 12 13 13 13 13 13 13 12 12 12 12 13 14 16 17 19 21 23 25 27 30 32 34 37 40 43 45
9 8 7 6 6 7 7 8 9 9 9 10 10 10 10 10 10 10 9 9 10 10 10 10 9 9 10 10 11 12 14 16 18 20 23 25 27 30 32 35 38 41 43 45
10 9 8 7 7 7 7 8 8 8 8 8 8 7 7 8 8 8 7 7 6 6 5 5 5 5 6 7 8 10 13 15 17 20 22 25 28 31 33 36 38 40 42 44
10 9 9 8 8 7 7 7 8 8 7 7 7 5 5 5 5 6 6 5 4 4 3 2 1 2 3 6 8 10 13 16 18 21 24 27 29 32 34 36 37 40 43 46
11 10 10 10 9 9 8 8 8 8 7 6 5 4 3 3 3 3 3 3 3 2 1 1 2 4 6 8 11 13 15 18 20 23 25 28 30 32 34 36 38 42 45 50
12 11 11 11 11 10 10 10 9 8 7 6 5 4 3 2 2 2 2 2 2 2 3 4 6 8 9 11 13 15 17 20 22 24 26 28 30 32 34 38 41 45 49 54
14 13 12 12 11 11 11 10 9 8 7 6 5 5 4 4 4 3 3 4 5 5 6 7 9 10 12 14 16 17 19 21 23 25 27 28 30 33 37 41 45 50 54 59
16 15 14 14 13 12 12 11 10 8 7 7 7 6 6 5 5 5 6 6 6 7 8 10 11 13 15 16 18 19 21 23 24 26 27 29 32 36 40 44 49 53 58 63
17 17 16 15 14 13 12 12 11 10 9 8 8 8 7 7 7 7 8 8 8 10 11 13 14 16 17 18 20 21 22 23 25 26 28 32 35 39 44 48 53 57 62 65
17 17 16 16 15 14 13 13 12 12 11 10 10 9 9 9 9 9 10 10 11 13 14 15 17 18 19 20 21 22 23 24 26 28 31 35 38 43 47 52 56 61 64 65
17 16 16 15 15 15 15 14 14 13 13 12 12 11 11 11 11 12 12 13 14 15 17 18 19 20 20 21 22 23 24 25 27 30 34 38 42 46 51 55 60 63 65 64
15 15 15 15 14 15 14 14 14 14 14 14 13 13 13 13 13 14 15 15 16 17 19 19 20 21 21 22 23 24 25 27 30 33 37 41 46 50 54 58 62 63 62 58
14 15 16 15 15 15 15 14 14 15 15 15 15 15 15 15 16 16 17 17 18 19 20 20 21 21 22 23 24 25 27 29 32 36 40 44 49 53 57 60 62 61 57 50
15 15 16 16 16 16 16 16 15 15 16 16 16 17 17 17 18 18 19 19 20 20 21 21 22 22 23 24 25 26 28 31 35 38 43 47 51 55 59 61 60 57 50 40
16 16 17 17 17 17 17 17 17 17 18 18 18 18 18 18 19 19 19 20 21 21 21 22 22 23 24 25 26 28 30 33 37 41 45 49 53 56 59 60 57 50 41 31
18 18 18 18 18 18 18 18 18 19 19 19 19 19 19 20 20 20 20 21 21 22 22 22 23 23 24 26 27 29 32 36 39 43 47 51 55 57 59 57 51 42 33 24
20 20 20 20 20 20 20 20 21 20 20 20 20 20 21 21 21 21 21 22 22 22 23 23 24 24 25 27 29 31 34 38 41 45 49 53 56 58 57 53 44 35 26 19
23 23 23 23 23 23 23 23 23 23 22 21 21 22 22 22 22 22 22 23 23 23 24 24 25 26 27 28 30 33 36 40 43 47 51 54 56 57 54 47 37 28 20 16
26 26 26 26 26 26 25 25 25 24 24 24 24 23 23 23 23 23 23 24 24 24 25 25 26 27 28 30 32 35 38 41 45 49 53 55 57 55 49 41 30 22 17 14
30 30 29 29 28 28 28 27 27 26 26 26 25 25 25 24 24 24 25 25 25 25 26 26 27 28 29 31 34 37 40 43 47 51 54 56 56 52 44 34 25 19 15 12
Wind_Direction
254 263 270 276 280 288 297 306 313 320 320 321 316 314 313 311 307 303 296 287 277 263 250 240 231 222 215 212 212 213 216 221 226 231 237 242 248 253 259 265 271 276 280 283
252 261 270 278 286 296 305 314 323 329 332 328 326 325 326 324 320 315 307 291 271 247 227 220 214 208 205 203 205 208 213 219 225 231 237 243 249 256 262 269 274 278 281 284
248 259 268 275 288 299 312 323 330 338 342 341 340 340 341 341 339 336 334 327 222 195 191 189 190 191 191 194 198 204 210 217 225 231 238 245 253 260 266 272 277 280 281 284
244 258 265 278 292 308 325 332 337 341 346 351 354 357 1 5 11 20 43 76 105 126 143 156 166 173 178 185 193 200 208 217 226 234 242 250 258 264 270 275 277 279 282 285
237 244 257 278 298 317 332 335 338 343 352 357 1 8 15 22 33 51 66 81 97 111 122 134 146 156 167 177 186 196 206 217 228 239 249 256 262 268 272 274 278 281 285 288
228 236 257 285 307 325 338 341 344 347 354 2 8 13 22 31 41 57 71 82 93 105 115 124 134 144 155 166 179 193 208 223 235 245 252 258 264 269 274 278 282 285 289 291
229 237 260 290 309 326 335 344 346 348 354 359 5 13 23 33 44 57 70 81 90 102 112 122 131 140 149 160 179 199 217 231 239 247 256 263 270 274 278 282 286 290 293 295
229 236 249 280 300 313 326 335 341 346 353 0 9 16 23 35 47 60 72 83 93 103 112 122 134 148 162 179 195 210 224 238 248 257 264 270 276 280 285 288 292 295 297 299
227 236 250 268 289 305 315 325 334 339 349 358 6 16 25 32 42 54 69 83 93 106 119 133 147 163 179 195 213 228 241 252 260 268 274 279 283 288 291 294 297 299 301 303
227 236 250 265 282 295 304 315 326 332 339 348 354 7 18 30 37 47 56 67 82 99 114 136 162 184 203 223 238 250 260 268 274 279 284 288 291 294 296 299 301 303 305 307
232 241 252 265 277 286 292 302 312 319 324 330 336 346 4 27 39 49 55 60 71 81 88 99 146 240 258 267 273 277 280 284 287 289 292 294 297 299 301 303 305 307 308 310
236 244 252 261 269 277 287 293 301 307 314 317 323 328 343 7 22 35 44 45 52 56 39 346 310 294 288 287 287 288 290 292 294 296 298 300 302 304 306 308 310 311 312 313
239 246 251 258 263 268 277 284 288 291 294 299 307 314 314 323 333 344 356 357 349 333 317 308 303 300 297 296 296 297 298 299 301 303 304 306 308 309 311 312 314 315 315 316
241 246 251 256 260 265 271 273 275 278 278 280 287 298 294 291 295 298 305 308 308 308 307 306 305 304 303 302 302 303 304 305 307 308 310 311 312 314 315 317 317 318 318 318
242 245 248 252 255 261 264 263 262 265 270 271 276 283 280 278 281 290 298 298 299 303 304 306 307 307 307 306 306 307 308 310 311 312 314 315 316 318 319 319 319 320 320 320
242 243 245 248 252 257 257 256 255 257 264 267 271 272 269 269 277 289 294 295 297 300 304 307 308 309 308 308 308 310 311 313 314 316 317 319 320 321 321 321 322 322 322 322
237 238 242 246 250 253 253 253 253 254 256 261 263 263 265 271 280 287 290 293 297 301 304 307 308 308 308 309 310 312 313 315 317 318 320 321 322 323 323 323 324 324 324 324
233 236 241 246 249 250 252 252 251 252 252 259 261 262 268 275 280 285 289 293 297 300 303 305 306 306 307 309 311 313 315 317 319 321 322 323 324 325 325 325 325 326 326 326
235 237 240 242 245 247 248 247 248 249 251 257 263 265 269 274 279 283 288 292 296 298 302 304 304 305 307 309 311 313 316 318 320 322 324 325 326 326 327 327 327 328 328 327
238 240 239 239 243 245 246 249 250 250 254 258 264 267 271 276 281 285 288 291 295 298 301 302 303 305 307 309 312 314 317 319 322 323 325 327 327 328 328 329 329 329 329 330
241 241 241 242 246 248 249 250 253 256 259 262 266 269 273 278 283 286 289 291 294 297 299 301 302 304 307 309 312 314 317 320 323 325 326 328 328 329 330 331 331 330 331 331
242 242 244 245 248 250 252 253 255 258 262 265 267 271 275 279 283 286 288 291 294 296 298 300 301 303 306 309 312 315 318 321 324 326 327 329 330 331 332 332 331 331 332 332
246 245 247 248 250 252 254 255 257 261 264 267 270 273 276 279 282 285 288 291 293 295 297 298 300 303 306 309 312 315 319 322 324 326 328 329 331 332 332 332 331 331 331 331
252 252 252 252 252 253 255 256 259 262 266 269 272 274 277 279 281 284 287 290 293 294 295 297 299 302 305 309 312 316 319 322 324 327 328 330 331 332 332 332 330 329 329 329
252 253 253 253 254 255 256 257 260 264 266 269 271 273 276 278 280 283 286 289 291 292 294 296 299 302 305 309 313 317 320 322 325 327 329 331 332 332 331 330 328 327 326 325
255 254 254 255 255 256 257 258 259 261 264 266 270 272 275 277 280 282 285 287 290 292 294 296 298 302 305 309 313 317 320 323 326 328 330 331 332 331 330 328 325 322 320 319
256 256 256 256 256 257 257 258 259 261 262 265 268 270 272 275 277 280 284 287 289 291 293 295 298 302 306 310 314 318 321 324 327 329 331 331 331 330 328 325 320 316 314 313
Height
5622 5622 5623 5624 5624 5622 5619 5616 5612 5609 5604 5599 5592 5585 5577 5569 5561 5553 5546 5541 5539 5540 5543 5548 5554 5562 5572 5584 5595 5604 5613 5622 5629 5636 5641 5646 5650 5652 5654 5655 5656 5655 5653 5651
5619 5619 5620 5620 5620 5618 5615 5612 5608 5604 5600 5595 5587 5580 5572 5563 5554 5546 5540 5535 5534 5535 5539 5544 5551 5560 5570 5580 5591 5600 5609 5617 5625 5631 5636 5640 5643 5646 5647 5648 5647 5646 5644 5642
5616 5616 5617 5618 5617 5615 5613 5610 5606 5602 5598 5592 5585 5577 5569 5561 5552 5544 5539 5535 5534 5536 5539 5545 5552 5560 5570 5580 5590 5599 5607 5615 5621 5626 5631 5635 5637 5639 5640 5640 5639 5637 5635 5632
5613 5615 5615 5617 5614 5612 5610 5607 5604 5600 5596 5591 5584 5577 5570 5562 5554 5547 5543 5540 5540 5541 5545 5550 5557 5564 5573 5582 5590 5598 5606 5612 5618 5623 5627 5630 5632 5633 5633 5632 5631 5628 5625 5621
5611 5611 5612 5613 5611 5609 5608 5606 5603 5600 5596 5591 5585 5579 5573 5566 5560 5555 5551 5549 5548 5549 5553 5557 5563 5570 5578 5585 5592 5599 5605 5611 5616 5619 5622 5624 5626 5626 5626 5624 5622 5619 5615 5611
5609 5610 5610 5612 5610 5608 5608 5605 5603 5599 5596 5592 5588 5583 5578 5572 5567 5563 5560 5559 5558 5559 5562 5566 5571 5576 5582 5588 5594 5600 5605 5609 5613 5616 5618 5619 5620 5619 5618 5616 5613 5609 5605 5601
5607 5607 5608 5609 5608 5607 5607 5606 5602 5599 5596 5593 5590 5587 5583 5578 5574 5571 5569 5567 5567 5568 5570 5573 5577 5581 5586 5591 5596 5600 5605 5608 5611 5612 5613 5613 5613 5612 5610 5607 5604 5600 5596 5590
5605 5606 5609 5607 5606 5606 5605 5603 5601 5599 5597 5594 5591 5588 5586 5583 5580 5578 5576 5575 5575 5576 5577 5579 5582 5585 5589 5593 5597 5600 5603 5606 5607 5608 5608 5607 5606 5604 5601 5598 5594 5590 5585 5579
5605 5607 5606 5605 5604 5604 5603 5602 5601 5599 5597 5595 5593 5591 5589 5586 5585 5583 5582 5581 5581 5582 5583 5585 5587 5590 5592 5595 5598 5600 5602 5603 5603 5603 5602 5601 5599 5596 5593 5590 5585 5581 5575 5569
5602 5603 5603 5603 5603 5602 5602 5601 5600 5598 5597 5595 5594 5592 5591 5589 5588 5587 5586 5585 5586 5586 5587 5589 5590 5592 5594 5596 5597 5598 5599 5599 5598 5597 5596 5594 5591 5589 5585 5581 5576 5571 5565 5559
5599 5600 5601 5601 5601 5601 5600 5599 5599 5598 5597 5595 5594 5593 5592 5591 5590 5589 5589 5588 5589 5589 5590 5590 5591 5592 5593 5594 5595 5595 5595 5594 5593 5592 5590 5587 5584 5581 5577 5572 5567 5561 5555 5548
5597 5598 5599 5599 5599 5599 5598 5598 5597 5597 5596 5595 5594 5593 5592 5592 5591 5590 5590 5590 5590 5590 5590 5591 5591 5591 5592 5592 5592 5591 5590 5589 5588 5585 5583 5580 5576 5573 5568 5563 5557 5551 5544 5536
5594 5595 5595 5596 5596 5596 5596 5596 5596 5595 5595 5594 5593 5593 5592 5592 5591 5591 5591 5590 5590 5590 5590 5590 5590 5590 5589 5589 5588 5587 5586 5584 5582 5579 5576 5573 5569 5565 5560 5554 5547 5540 5533 5524
5590 5591 5592 5593 5593 5594 5594 5594 5593 5593 5593 5593 5592 5592 5592 5591 5591 5591 5590 5590 5590 5589 5589 5589 5588 5587 5586 5585 5584 5582 5581 5578 5576 5573 5569 5565 5561 5556 5551 5545 5537 5529 5520 5510
5586 5588 5589 5589 5590 5590 5591 5591 5591 5591 5591 5591 5591 5591 5590 5590 5590 5590 5589 5589 5588 5588 5587 5586 5585 5584 5583 5581 5579 5577 5575 5572 5569 5566 5562 5558 5554 5548 5542 5535 5527 5518 5508 5496
5582 5583 5585 5586 5586 5587 5588 5588 5589 5589 5589 5589 5589 5589 5589 5589 5588 5588 5587 5587 5586 5585 5584 5583 5582 5580 5578 5577 5575 5572 5570 5567 5563 5560 5556 5551 5546 5540 5533 5525 5516 5506 5495 5483
5578 5579 5581 5582 5583 5583 5584 5585 5585 5586 5586 5586 5587 5587 5587 5587 5586 5586 5585 5584 5583 5582 5581 5580 5578 5576 5574 5572 5569 5567 5564 5561 5557 5553 5549 5544 5538 5531 5523 5514 5504 5493 5481 5468
5573 5575 5577 5578 5579 5580 5580 5581 5582 5582 5583 5584 5584 5584 5584 5584 5583 5583 5582 5581 5580 5579 5577 5576 5574 5572 5569 5567 5564 5561 5558 5555 5551 5546 5541 5536 5529 5521 5512 5502 5492 5480 5467 5454
5569 5571 5572 5573 5574 5575 5576 5577 5578 5579 5580 5580 5580 5580 5581 5580 5580 5579 5578 5578 5576 5575 5573 5571 5569 5567 5564 5561 5559 5556 5552 5549 5544 5539 5534 5527 5520 5511 5501 5491 5479 5467 5455 5443
5565 5567 5568 5569 5571 5572 5573 5574 5574 5575 5576 5576 5577 5577 5577 5576 5576 5575 5574 5573 5572 5570 5568 5566 5564 5561 5559 5556 5553 5550 5546 5542 5537 5532 5525 5518 5510 5501 5490 5479 5467 5455 5444 5433
5561 5563 5564 5565 5567 5567 5568 5569 5570 5571 5572 5572 5572 5572 5572 5572 5571 5570 5569 5568 5567 5565 5563 5561 5558 5556 5553 5550 5547 5544 5540 5535 5530 5524 5517 5509 5500 5490 5480 5468 5457 5445 5435 5426
5557 5559 5560 5561 5562 5563 5564 5565 5566 5567 5567 5568 5568 5568 5567 5567 5566 5565 5564 5563 5561 5559 5557 5555 5553 5550 5547 5544 5541 5537 5533 5528 5522 5516 5509 5500 5491 5481 5470 5459 5448 5437 5428 5421
5553 5554 5555 5556 5557 5558 5559 5560 5561 5562 5562 5562 5562 5562 5562 5561 5560 5560 5559 5557 5555 5553 5551 5549 5547 5544 5541 5538 5534 5530 5526 5521 5515 5508 5500 5492 5482 5472 5461 5450 5439 5431 5423 5418
5547 5548 5549 5550 5552 5553 5554 5554 5555 5556 5556 5557 5557 5556 5556 5555 5555 5554 5552 5551 5549 5547 5545 5543 5541 5538 5535 5531 5528 5524 5519 5513 5507 5500 5492 5483 5473 5463 5452 5441 5432 5425 5419 5415
5541 5542 5543 5544 5545 5546 5547 5548 5549 5550 5550 5550 5550 5550 5550 5549 5548 5547 5546 5545 5543 5541 5539 5537 5534 5531 5528 5525 5521 5516 5511 5506 5499 5491 5483 5474 5464 5454 5443 5434 5426 5420 5416 5413
5534 5535 5536 5537 5538 5539 5540 5541 5542 5542 5543 5543 5543 5543 5543 5542 5542 5541 5540 5538 5537 5535 5532 5530 5528 5525 5522 5518 5514 5509 5504 5498 5491 5483 5474 5465 5455 5445 5435 5427 5420 5416 5413 5410
5525 5526 5527 5529 5530 5531 5532 5533 5534 5535 5535 5536 5536 5536 5535 5535 5535 5534 5533 5531 5530 5528 5526 5523 5521 5518 5515 5511 5507 5502 5496 5489 5482 5474 5465 5455 5445 5436 5427 5420 5415 5412 5409 5407